Regional Weather Roundup
Issued by NWS Midland/Odessa, TX

Skip options and go directly to product.
Home | Oldest Version | Previous Version | Current Version | All | Text Only | Save Text | Print | Product List | Glossary Off

Skip product version selection by date and time.   

914
ASUS44 KMAF 221410
RWRMAF
MIDLAND AREA WEATHER ROUNDUP
NATIONAL WEATHER SERVICE MIDLAND TX
800 AM CST SAT NOV 22 2014

...IN SOUTHWEST TEXAS AND SOUTHEAST NEW MEXICO...

CITY           SKY/WX    TMP DP  RH WIND       PRES   REMARKS
ALPINE         CLOUDY    44  42  92 SW3       30.05R
ANDREWS        CLOUDY    55  54  96 CALM      29.98R
ARTESIA        NOT AVBL
BIG SPRING     CLOUDY    59  56  91 N3        29.98S THUNDER
CARLSBAD       MOCLDY    48  40  73 W10       29.98S
DRYDEN           N/A     61  60  97 S5        29.91R
FORT STOCKTON  CLOUDY    52  49  89 W5        29.96R
GUAD PASS      LGT RAIN  44  43  96 E15       30.04R VSB<1/4 WCI  37
HOBBS          LGT RAIN  52  52 100 NW6       30.01S
MARFA          CLOUDY    41  36  81 NE7       30.01S WCI  36
MIDLAND AIRPK  CLOUDY    59  59 100 CALM      29.97R THUNDER FOG
MIDLAND INTL   CLOUDY    58  55  90 CALM      29.95R FOG
ODESSA         CLOUDY    56  53  90 N3        29.97R FOG
PECOS          CLOUDY    50  48  94 S6        29.97R FOG
PRESIDIO       FAIR      52  46  80 S5        29.96R
SEMINOLE       CLOUDY    52  51  96 NW3       30.00R
SNYDER         CLOUDY    57  57  99 CALM      29.97F THUNDER FOG
WINK           CLOUDY    55  51  86 E6        29.95S
$$
...OTHER STATIONS IN TEXAS...

CITY           SKY/WX    TMP DP  RH WIND       PRES   REMARKS
ABILENE        MOCLDY    62  59  90 SE13      29.96F
AMARILLO       CLEAR     43  38  82 SW9       29.96F WCI  38
AUSTIN         TSTM      65  63  93 SE6       30.03R
BROWNSVILLE    LGT RAIN  71  67  87 SE21G35   29.90F
CORPUS CHRISTI PTSUNNY   72  69  90 SE16      29.96F
DALLAS FTW     DRZL/FOG  56  56 100 SE16      30.03F VSB 3/4
DEL RIO        LGT RAIN  67  65  93 SE10      29.90S FOG
EL PASO        MOCLDY    51  42  71 NW6       30.03R
HOUSTON INT    PTSUNNY   63  59  88 E8        30.08S
LUBBOCK        CLOUDY    46  43  89 CALM      29.98R
SAN ANGELO     CLOUDY    62  60  93 CALM      29.95S
SAN ANTONIO    CLOUDY    67  65  93 SE14      29.98F FOG
WACO           CLOUDY    63  60  90 SE13      30.04R
WICHITA FALLS  NOT AVBL
$$
...OTHER LOCATIONS IN NEW MEXICO...

CITY           SKY/WX    TMP DP  RH WIND       PRES   REMARKS
ALAMAGORDO     MOCLDY    39  25  56 CALM      30.05R
ALBUQUERQUE    PTCLDY    32  19  58 N5        30.10R WCI  27
CANNON AFB     CLEAR     41  38  90 W7        29.99F WCI  36
CLOVIS         CLOUDY    39  37  93 CALM      29.99S VSB<1/4
HOLLOMAN AFB   PTCLDY    36  25  63 NE6       30.04R WCI  31
ROSWELL        MOCLDY    45  30  55 N3        30.00S
RUIDOSO        CLEAR     37  21  52 W9        30.10S WCI  31
SANTA FE       PTCLDY    26  20  77 N15       30.08R WCI  14
TRUTH OR CONSE CLEAR     37  21  52 NW5       30.08R WCI  33
TUCUMCARI      CLEAR     35  24  64 W10       29.97S WCI  27
$$

USA.gov is the U.S. government's official web portal to all federal, state and local government web resources and services.